User: anonymous   Login
Location: Fort Wayne
(41.1310°N, 85.1290°W)
Time: 08:05:11
(UTC-04:00)
Language:

Cosmos 2227 Rocket - Orbit

View from above orbital plane
View from above orbital plane
View from above satellite
View from above satellite

Ground track
Ground track

The orbit data is extracted from the following two-line orbital elements,

1 22285U 92093B   15148.05275591 -.00000269  00000-0 -11450-3 0  9998
2 22285 071.0215 347.9404 0005240 217.9409 142.1345 14.14968409156289
Epoch (UTC): 28 May 2015 01:15:58
Eccentricity: 0.0005240
inclination: 71.0215°
perigee height: 838 km
apogee height: 846 km
right ascension of ascending node: 347.9404°
argument of perigee: 217.9409°
revolutions per day: 14.14968409
mean anomaly at epoch: 142.1345°
orbit number at epoch: 15628

The dashed part of the orbit path shows where the satellite is in the earth's shadow,  

DLR